PST,Max TemperatureF,Mean TemperatureF,Min TemperatureF,Max Dew PointF,MeanDew PointF,Min DewpointF,Max Humidity, Mean Humidity, Min Humidity, Max Sea Level PressureIn, Mean Sea Level PressureIn, Min Sea Level PressureIn, Max VisibilityMiles, Mean VisibilityMiles, Min VisibilityMiles, Max Wind SpeedMPH, Mean Wind SpeedMPH, Max Gust SpeedMPH,PrecipitationIn, CloudCover, Events, WindDirDegrees
2013-1-1,53,45,36,40,35,31,86,68,50,30.33,30.28,30.22,10,10,6,12,5,32,0.00,1,,54
2013-1-2,56,46,35,41,34,30,89,67,45,30.22,30.17,30.10,10,10,10,9,6,15,0.00,0,,105
2013-1-3,55,46,36,46,39,30,83,68,53,30.32,30.20,30.08,10,10,10,21,10,28,T,7,Rain,141
2013-1-4,54,47,39,45,40,37,89,72,54,30.32,30.26,30.17,10,10,10,8,4,10,0.00,2,,106
2013-1-5,52,45,38,44,41,38,96,82,68,30.20,30.18,30.16,10,10,4,17,4,22,0.05,6,Rain,121
2013-1-6,50,43,35,43,40,35,100,87,74,30.26,30.23,30.18,10,9,4,8,2,10,0.00,3,Rain,59
2013-1-7,50,48,45,49,47,41,93,85,77,30.34,30.30,30.26,10,5,1,14,6,16,0.10,8,Rain,158
2013-1-8,52,49,45,48,46,44,100,89,77,30.33,30.24,30.11,10,10,6,15,5,18,0.00,6,,173
2013-1-9,50,44,37,48,43,36,100,88,76,30.12,30.07,30.00,10,7,2,28,10,38,0.51,7,Rain,153
2013-1-10,44,40,36,40,37,35,100,91,82,30.26,30.19,30.09,10,9,4,14,3,22,0.40,7,Rain,74
2013-1-11,53,45,37,43,38,35,100,86,71,30.28,30.26,30.23,10,10,3,8,4,16,0.10,6,Rain,59
2013-1-12,47,40,33,33,27,24,70,60,49,30.29,30.27,30.24,10,10,10,8,5,,0.00,5,,38
2013-1-13,48,40,31,34,25,22,72,59,45,30.36,30.32,30.28,10,10,10,21,8,28,0.00,0,,14
2013-1-14,50,40,30,34,26,22,75,54,33,30.47,30.42,30.36,10,10,10,12,6,28,0.00,0,,35
2013-1-15,50,41,32,37,31,24,89,69,49,30.50,30.47,30.45,10,10,10,9,4,12,0.00,0,,44
2013-1-16,53,43,32,45,41,30,100,77,54,30.45,30.36,30.30,10,7,0,8,3,9,0.00,2,Fog,153
2013-1-17,47,40,32,45,38,32,100,91,82,30.30,30.25,30.21,10,4,0,9,2,10,0.00,5,Fog-Rain,152
2013-1-18,46,40,33,41,37,34,100,91,82,30.26,30.22,30.20,10,4,0,8,2,10,0.00,1,Fog-Rain,4
2013-1-19,50,41,31,42,37,30,100,87,74,30.30,30.24,30.20,10,3,0,9,3,17,T,2,Fog-Rain,355
2013-1-20,55,43,30,43,36,27,100,73,45,30.26,30.22,30.16,10,6,1,9,4,14,0.00,1,Rain,24
2013-1-21,65,50,34,43,34,27,76,53,30,30.19,30.13,30.08,10,9,2,9,4,17,0.00,0,,64
2013-1-22,60,49,38,38,33,29,76,55,33,30.08,29.99,29.92,10,10,7,14,6,17,0.00,0,,104
2013-1-23,55,50,44,50,46,36,100,82,64,30.15,29.99,29.83,10,4,1,17,5,25,2.33,8,Rain,325
2013-1-24,52,47,42,52,47,43,100,95,89,30.22,30.16,30.13,10,3,0,9,3,12,0.01,6,Fog-Rain,170
2013-1-25,49,47,44,49,48,44,100,100,100,30.21,30.14,30.07,7,3,0,17,9,22,0.92,8,Fog-Rain,176
2013-1-26,50,44,38,46,43,38,100,89,77,30.18,30.09,30.07,10,7,0,13,4,16,0.33,7,Fog-Rain,133
2013-1-27,48,42,36,43,40,36,100,86,71,30.28,30.23,30.18,10,9,5,9,4,12,0.27,7,Rain,150
2013-1-28,47,43,39,45,43,39,100,93,86,30.44,30.37,30.23,10,7,2,14,4,17,0.09,8,Rain,335
2013-1-29,50,44,38,45,44,38,100,93,86,30.54,30.49,30.43,10,8,2,20,8,26,0.09,5,Rain,346
2013-1-30,53,43,33,47,39,33,100,84,68,30.52,30.47,30.38,10,6,2,23,7,32,0.00,0,,4
2013-1-31,52,44,36,43,39,35,93,78,63,30.39,30.32,30.25,10,9,5,10,5,13,0.00,0,,26